Gadsden, AL

12:26 PM CDT on July 17, 2019 (GMT -0500)
Gadsden Municipal

Weather History for KGAD - May, 2019

Change the Weather History Date:

Sunday, May 12, 2019

  Actual Average Record
Temperature  
Mean Temperature 72 °F -  
Max Temperature 77 °F 78 °F 91 °F (1936)
Min Temperature 64 °F 53 °F 36 °F (1952)
Cooling Degree Days 6    
Growing Degree Days 22 (Base 50)    
Moisture  
Dew Point 69 °F    
Average Humidity 94    
Maximum Humidity 100    
Minimum Humidity 82    
Precipitation  
Precipitation 0.24 in - - ()
Sea Level Pressure  
Sea Level Pressure 29.81 in    
Wind  
Wind Speed 4 mph (SW)    
Max Wind Speed 10 mph    
Max Gust Speed -    
Visibility 9 miles    
Events Rain    
Averages and records for this station are not official NWS values.
T = Trace of Precipitation, MM = Missing Value Source: NWS Daily Summary

Daily Weather History Graph

Daily Weather History Graph

Search for Another Location

Airport or City:

Astronomy

May. 12, 2019 Rise Set
Actual Time 5:45 AM CDT 7:36 PM CDT
Civil Twilight 5:18 AM CDT 8:03 PM CDT
Nautical Twilight 4:44 AM CDT 8:37 PM CDT
Astronomical Twilight 4:09 AM CDT 9:12 PM CDT
Moon 1:01 PM CDT (5/12) 2:00 AM CDT (5/12)
Length of Visible Light 14h 45m
Length of Day
13h 51m
First Quarter, 58% of the Moon is Illuminated
May 12
First Quarter
May 18
Full
May 26
Last Quarter
Jun 3
New
Jun 10
First Quarter

Hourly Weather History & Observations

Time (CDT) Temp. Dew Point Humidity Pressure Visibility Wind Dir Wind Speed Gust Speed Precip Events Conditions
12:17 AM 66.2 °F - N/A% 29.85 in 10.0 mi SSW 3.5 mph - 0.01 in Rain Light Rain
12:45 AM 66.2 °F - N/A% 29.84 in 10.0 mi South 3.5 mph - 0.02 in Rain Light Rain
1:56 AM 66.9 °F - N/A% 29.79 in 10.0 mi Calm Calm - N/A   Overcast
2:23 AM 66.2 °F - N/A% 29.78 in 10.0 mi Calm Calm - N/A   Overcast
3:56 AM 66.9 °F - N/A% 29.80 in 10.0 mi West 6.9 mph - 0.01 in   Overcast
4:05 AM 66.2 °F - N/A% 29.80 in 10.0 mi West 6.9 mph - 0.00 in Rain Light Rain
4:41 AM 66.2 °F - N/A% 29.82 in 10.0 mi SSW 3.5 mph - 0.00 in   Overcast
4:56 AM 66.9 °F - N/A% 29.83 in 10.0 mi SSW 4.6 mph - 0.00 in   Overcast
5:33 AM 66.2 °F - N/A% 29.82 in 10.0 mi South 3.5 mph - N/A   Mostly Cloudy
5:56 AM 66.0 °F - N/A% 29.83 in 10.0 mi Calm Calm - N/A   Scattered Clouds
6:22 AM 66.2 °F - N/A% 29.83 in 10.0 mi SSE 3.5 mph - N/A   Mostly Cloudy
6:35 AM 66.2 °F - N/A% 29.82 in 10.0 mi South 3.5 mph - N/A   Overcast
6:56 AM 66.9 °F - N/A% 29.83 in 10.0 mi SSE 4.6 mph - N/A   Scattered Clouds
7:56 AM 66.9 °F - N/A% 29.83 in 10.0 mi Calm Calm - 0.02 in Rain Light Rain
8:26 AM 66.2 °F - N/A% 29.85 in 5.0 mi Variable 3.5 mph - 0.05 in Rain Heavy Rain
8:32 AM 66.2 °F - N/A% 29.83 in 2.5 mi Calm Calm - 0.08 in Rain Heavy Rain
8:41 AM 66.2 °F - N/A% 29.84 in 5.0 mi Calm Calm - 0.09 in Rain Light Rain
8:56 AM 66.9 °F - N/A% 29.84 in 8.0 mi Variable 3.5 mph - 0.10 in Rain Light Rain
9:56 AM 66.9 °F - N/A% 29.82 in 10.0 mi Calm Calm - 0.04 in Rain Light Rain
10:41 AM 68.0 °F - N/A% 29.84 in 10.0 mi South 3.5 mph - 0.00 in   Overcast
10:56 AM 68.0 °F - N/A% 29.84 in 10.0 mi Calm Calm - 0.00 in Rain Light Rain
11:20 AM 68.0 °F - N/A% 29.83 in 5.0 mi SSW 3.5 mph - 0.00 in Rain Light Rain
11:56 AM 69.1 °F 69.1 °F 100% 29.82 in 8.0 mi Calm Calm - 0.00 in   Overcast
12:40 PM 68.0 °F - N/A% 29.81 in 5.0 mi South 4.6 mph - 0.00 in Rain Light Rain
12:47 PM 68.0 °F - N/A% 29.81 in 10.0 mi SSW 3.5 mph - 0.00 in Rain Light Rain
12:56 PM 68.0 °F - N/A% 29.81 in 6.0 mi South 4.6 mph - 0.00 in Rain Light Rain
1:26 PM 69.8 °F - N/A% 29.80 in 10.0 mi SSE 3.5 mph - 0.07 in Rain Light Rain
1:42 PM 69.8 °F - N/A% 29.80 in 10.0 mi South 4.6 mph - 0.07 in   Overcast
1:56 PM 71.1 °F 71.1 °F 100% 29.79 in 10.0 mi Variable 3.5 mph - 0.07 in   Overcast
2:21 PM 73.4 °F 71.6 °F 94% 29.79 in 10.0 mi SSW 8.1 mph - N/A   Mostly Cloudy
2:28 PM 73.4 °F 71.6 °F 94% 29.78 in 10.0 mi Variable 6.9 mph - N/A   Mostly Cloudy
2:56 PM 75.0 °F 71.1 °F 87% 29.77 in 10.0 mi SW 9.2 mph - N/A   Scattered Clouds
3:56 PM 77.0 °F 71.1 °F 82% 29.76 in 10.0 mi WSW 10.4 mph - N/A   Scattered Clouds
4:37 PM 75.2 °F 69.8 °F 83% 29.76 in 10.0 mi SW 8.1 mph - N/A   Overcast
4:56 PM 73.9 °F 70.0 °F 87% 29.76 in 10.0 mi SW 9.2 mph - N/A   Scattered Clouds
5:56 PM 73.0 °F 68.0 °F 84% 29.77 in 10.0 mi West 10.4 mph - 0.00 in   Scattered Clouds
6:56 PM 72.0 °F 68.0 °F 87% 29.77 in 10.0 mi West 5.8 mph - N/A   Clear
7:56 PM 66.9 °F 66.9 °F 100% 29.78 in 10.0 mi SSW 3.5 mph - N/A   Partly Cloudy
8:56 PM 68.0 °F 68.0 °F 100% 29.79 in 10.0 mi WSW 4.6 mph - N/A   Overcast
9:13 PM 68.0 °F 68.0 °F 100% 29.81 in 10.0 mi WNW 4.6 mph - N/A   Overcast
9:24 PM 68.0 °F 68.0 °F 100% 29.80 in 10.0 mi NW 4.6 mph - 0.00 in Rain Light Rain
9:56 PM 66.9 °F 66.9 °F 100% 29.82 in 10.0 mi NW 3.5 mph - 0.00 in   Mostly Cloudy
10:56 PM 66.0 °F 66.0 °F 100% 29.83 in 10.0 mi NW 3.5 mph - N/A   Overcast
11:56 PM 64.9 °F 64.0 °F 97% 29.84 in 10.0 mi West 3.5 mph - N/A   Overcast